Year,Month,Day,Hour,Minute,Value (Times are PST for temperature in C)
2020,02,01,00,00,10.40
2020,02,01,00,01,10.40
2020,02,01,00,02,10.40
2020,02,01,00,03,10.40
2020,02,01,00,04,10.40
2020,02,01,00,05,10.40
2020,02,01,00,06,10.40
2020,02,01,00,07,10.40
2020,02,01,00,08,10.40
2020,02,01,00,09,10.40
2020,02,01,00,10,10.40
2020,02,01,00,11,10.40
2020,02,01,00,12,10.30
2020,02,01,00,13,10.30
2020,02,01,00,14,10.30
2020,02,01,00,15,10.30
2020,02,01,00,16,10.40
2020,02,01,00,17,10.40
2020,02,01,00,18,10.40
2020,02,01,00,19,10.40
2020,02,01,00,20,10.40
2020,02,01,00,21,10.40
2020,02,01,00,22,10.40
2020,02,01,00,23,10.40
2020,02,01,00,24,10.40
2020,02,01,00,25,10.40
2020,02,01,00,26,10.40
2020,02,01,00,27,10.40
2020,02,01,00,28,10.40
2020,02,01,00,29,10.40
2020,02,01,00,30,10.40
2020,02,01,00,31,10.40
2020,02,01,00,32,10.40
2020,02,01,00,33,10.40
2020,02,01,00,34,10.40
2020,02,01,00,35,10.40
2020,02,01,00,36,10.40
2020,02,01,00,37,10.40
2020,02,01,00,38,10.40
2020,02,01,00,39,10.50
2020,02,01,00,40,10.50
2020,02,01,00,41,10.50
2020,02,01,00,42,10.50
2020,02,01,00,43,10.50
2020,02,01,00,44,10.50
2020,02,01,00,45,10.60
2020,02,01,00,46,10.60
2020,02,01,00,47,10.60
2020,02,01,00,48,10.60
2020,02,01,00,49,10.60
2020,02,01,00,50,10.70
2020,02,01,00,51,10.70
2020,02,01,00,52,10.70
2020,02,01,00,53,10.70
2020,02,01,00,54,10.70
2020,02,01,00,55,10.70
2020,02,01,00,56,10.80
2020,02,01,00,57,10.80
2020,02,01,00,58,10.80
2020,02,01,00,59,10.80
2020,02,01,01,00,10.80
2020,02,01,01,01,10.80
2020,02,01,01,02,10.90
2020,02,01,01,03,10.90
2020,02,01,01,04,10.90
2020,02,01,01,05,10.90
2020,02,01,01,06,10.90
2020,02,01,01,07,11.00
2020,02,01,01,08,11.00
2020,02,01,01,09,11.00
2020,02,01,01,10,11.00
2020,02,01,01,11,11.00
2020,02,01,01,12,11.00
2020,02,01,01,13,11.00
2020,02,01,01,14,11.00
2020,02,01,01,15,11.00
2020,02,01,01,16,11.00
2020,02,01,01,17,11.00
2020,02,01,01,18,11.00
2020,02,01,01,19,11.00
2020,02,01,01,20,11.00
2020,02,01,01,21,11.00
2020,02,01,01,22,11.00
2020,02,01,01,23,11.00
2020,02,01,01,24,11.00
2020,02,01,01,25,11.00
2020,02,01,01,26,11.00
2020,02,01,01,27,11.00
2020,02,01,01,28,11.00
2020,02,01,01,29,11.00
2020,02,01,01,30,11.00
2020,02,01,01,31,10.90
2020,02,01,01,32,11.00
2020,02,01,01,33,11.00
2020,02,01,01,34,10.90
2020,02,01,01,35,10.90
2020,02,01,01,36,10.90
2020,02,01,01,37,10.90
2020,02,01,01,38,10.90
2020,02,01,01,39,10.90
2020,02,01,01,40,10.90
2020,02,01,01,41,10.90
2020,02,01,01,42,10.90
2020,02,01,01,43,10.90
2020,02,01,01,44,10.90
2020,02,01,01,45,10.90
2020,02,01,01,46,10.90
2020,02,01,01,47,10.90
2020,02,01,01,48,10.80
2020,02,01,01,49,10.80
2020,02,01,01,50,10.80
2020,02,01,01,51,10.80
2020,02,01,01,52,10.80
2020,02,01,01,53,10.80
2020,02,01,01,54,10.80
2020,02,01,01,55,10.80
2020,02,01,01,56,10.80
2020,02,01,01,57,10.80
2020,02,01,01,58,10.80
2020,02,01,01,59,10.80
2020,02,01,02,00,10.80
2020,02,01,02,01,10.80
2020,02,01,02,02,10.80
2020,02,01,02,03,10.80
2020,02,01,02,04,10.80
2020,02,01,02,05,10.80
2020,02,01,02,06,10.80
2020,02,01,02,07,10.80
2020,02,01,02,08,10.80
2020,02,01,02,09,10.80
2020,02,01,02,10,10.80
2020,02,01,02,11,10.80
2020,02,01,02,12,10.80
2020,02,01,02,13,10.80
2020,02,01,02,14,10.70
2020,02,01,02,15,10.70
2020,02,01,02,16,10.70
2020,02,01,02,17,10.70
2020,02,01,02,18,10.70
2020,02,01,02,19,10.70
2020,02,01,02,20,10.70
2020,02,01,02,21,10.70
2020,02,01,02,22,10.70
2020,02,01,02,23,10.70
2020,02,01,02,24,10.70
2020,02,01,02,25,10.70
2020,02,01,02,26,10.70
2020,02,01,02,27,10.70
2020,02,01,02,28,10.70
2020,02,01,02,29,10.70
2020,02,01,02,30,10.70
2020,02,01,02,31,10.70
2020,02,01,02,32,10.70
2020,02,01,02,33,10.70
2020,02,01,02,34,10.70
2020,02,01,02,35,10.70
2020,02,01,02,36,10.70
2020,02,01,02,37,10.70
2020,02,01,02,38,10.70
2020,02,01,02,39,10.70
2020,02,01,02,40,10.70
2020,02,01,02,41,10.70
2020,02,01,02,42,10.70
2020,02,01,02,43,10.70
2020,02,01,02,44,10.70
2020,02,01,02,45,10.70
2020,02,01,02,46,10.70
2020,02,01,02,47,10.70
2020,02,01,02,48,10.70
2020,02,01,02,49,10.70
2020,02,01,02,50,10.60
2020,02,01,02,51,10.60
2020,02,01,02,52,10.60
2020,02,01,02,53,10.60
2020,02,01,02,54,10.60
2020,02,01,02,55,10.60
2020,02,01,02,56,10.60
2020,02,01,02,57,10.60
2020,02,01,02,58,10.60
2020,02,01,02,59,10.60
2020,02,01,03,00,10.60
2020,02,01,03,01,10.60
2020,02,01,03,02,10.60
2020,02,01,03,03,10.60
2020,02,01,03,04,10.60
2020,02,01,03,05,10.60
2020,02,01,03,06,10.60
2020,02,01,03,07,10.60
2020,02,01,03,08,10.60
2020,02,01,03,09,10.60
2020,02,01,03,10,10.60
2020,02,01,03,11,10.60
2020,02,01,03,12,10.60
2020,02,01,03,13,10.60
2020,02,01,03,14,10.60
2020,02,01,03,15,10.60
2020,02,01,03,16,10.60
2020,02,01,03,17,10.60
2020,02,01,03,18,10.50
2020,02,01,03,19,10.50
2020,02,01,03,20,10.50
2020,02,01,03,21,10.50
2020,02,01,03,22,10.50
2020,02,01,03,23,10.50
2020,02,01,03,24,10.40
2020,02,01,03,25,10.40
2020,02,01,03,26,10.40
2020,02,01,03,27,10.40
2020,02,01,03,28,10.40
2020,02,01,03,29,10.40
2020,02,01,03,30,10.40
2020,02,01,03,31,10.40
2020,02,01,03,32,10.30
2020,02,01,03,33,10.30
2020,02,01,03,34,10.30
2020,02,01,03,35,10.30
2020,02,01,03,36,10.30
2020,02,01,03,37,10.30
2020,02,01,03,38,10.30
2020,02,01,03,39,10.30
2020,02,01,03,40,10.30
2020,02,01,03,41,10.30
2020,02,01,03,42,10.30
2020,02,01,03,43,10.30
2020,02,01,03,44,10.30
2020,02,01,03,45,10.30
2020,02,01,03,46,10.30
2020,02,01,03,47,10.30
2020,02,01,03,48,10.20
2020,02,01,03,49,10.20
2020,02,01,03,50,10.20
2020,02,01,03,51,10.20
2020,02,01,03,52,10.20
2020,02,01,03,53,10.20
2020,02,01,03,54,10.20
2020,02,01,03,55,10.20
2020,02,01,03,56,10.20
2020,02,01,03,57,10.20
2020,02,01,03,58,10.20
2020,02,01,03,59,10.20
2020,02,01,04,00,10.20
2020,02,01,04,01,10.20
2020,02,01,04,02,10.20
2020,02,01,04,03,10.20
2020,02,01,04,04,10.20
2020,02,01,04,05,10.20
2020,02,01,04,06,10.20
2020,02,01,04,07,10.20
2020,02,01,04,08,10.20
2020,02,01,04,09,10.20
2020,02,01,04,10,10.20
2020,02,01,04,11,10.20
2020,02,01,04,12,10.20
2020,02,01,04,13,10.20
2020,02,01,04,14,10.20
2020,02,01,04,15,10.20
2020,02,01,04,16,10.20
2020,02,01,04,17,10.20
2020,02,01,04,18,10.20
2020,02,01,04,19,10.20
2020,02,01,04,20,10.20
2020,02,01,04,21,10.20
2020,02,01,04,22,10.20
2020,02,01,04,23,10.20
2020,02,01,04,24,10.20
2020,02,01,04,25,10.20
2020,02,01,04,26,10.20
2020,02,01,04,27,10.10
2020,02,01,04,28,10.10
2020,02,01,04,29,10.10
2020,02,01,04,30,10.10
2020,02,01,04,31,10.10
2020,02,01,04,32,10.10
2020,02,01,04,33,10.10
2020,02,01,04,34,10.10
2020,02,01,04,35,10.10
2020,02,01,04,36,10.10
2020,02,01,04,37,10.10
2020,02,01,04,38,10.10
2020,02,01,04,39,10.10
2020,02,01,04,40,10.10
2020,02,01,04,41,10.10
2020,02,01,04,42,10.10
2020,02,01,04,43,10.10
2020,02,01,04,44,10.10
2020,02,01,04,45,10.10
2020,02,01,04,46,10.10
2020,02,01,04,47,10.10
2020,02,01,04,48,10.10
2020,02,01,04,49,10.10
2020,02,01,04,50,10.10
2020,02,01,04,51,10.10
2020,02,01,04,52,10.10
2020,02,01,04,53,10.10
2020,02,01,04,54,10.10
2020,02,01,04,55,10.10
2020,02,01,04,56,10.10
2020,02,01,04,57,10.10
2020,02,01,04,58,10.10
2020,02,01,04,59,10.10
2020,02,01,05,00,10.10
2020,02,01,05,01,10.20
2020,02,01,05,02,10.20
2020,02,01,05,03,10.20
2020,02,01,05,04,10.20
2020,02,01,05,05,10.20
2020,02,01,05,06,10.20
2020,02,01,05,07,10.30
2020,02,01,05,08,10.30
2020,02,01,05,09,10.30
2020,02,01,05,10,10.30
2020,02,01,05,11,10.30
2020,02,01,05,12,10.30
2020,02,01,05,13,10.30
2020,02,01,05,14,10.30
2020,02,01,05,15,10.30
2020,02,01,05,16,10.30
2020,02,01,05,17,10.30
2020,02,01,05,18,10.30
2020,02,01,05,19,10.30
2020,02,01,05,20,10.30
2020,02,01,05,21,10.30
2020,02,01,05,22,10.30
2020,02,01,05,23,10.30
2020,02,01,05,24,10.30
2020,02,01,05,25,10.20
2020,02,01,05,26,10.20
2020,02,01,05,27,10.20
2020,02,01,05,28,10.10
2020,02,01,05,29,10.10
2020,02,01,05,30,10.10
2020,02,01,05,31,10.00
2020,02,01,05,32,10.00
2020,02,01,05,33,10.00
2020,02,01,05,34,9.90
2020,02,01,05,35,9.90
2020,02,01,05,36,9.90
2020,02,01,05,37,9.90
2020,02,01,05,38,9.80
2020,02,01,05,39,9.80
2020,02,01,05,40,9.80
2020,02,01,05,41,9.70
2020,02,01,05,42,9.70
2020,02,01,05,43,9.70
2020,02,01,05,44,9.70
2020,02,01,05,45,9.60
2020,02,01,05,46,9.60
2020,02,01,05,47,9.60
2020,02,01,05,48,9.50
2020,02,01,05,49,9.50
2020,02,01,05,50,9.40
2020,02,01,05,51,9.40
2020,02,01,05,52,9.30
2020,02,01,05,53,9.30
2020,02,01,05,54,9.20
2020,02,01,05,55,9.20
2020,02,01,05,56,9.10
2020,02,01,05,57,9.10
2020,02,01,05,58,9.10
2020,02,01,05,59,9.10
2020,02,01,06,00,9.00
2020,02,01,06,01,9.00
2020,02,01,06,02,9.00
2020,02,01,06,03,8.90
2020,02,01,06,04,8.90
2020,02,01,06,05,8.90
2020,02,01,06,06,8.90
2020,02,01,06,07,8.80
2020,02,01,06,08,8.80
2020,02,01,06,09,8.80
2020,02,01,06,10,8.80
2020,02,01,06,11,8.70
2020,02,01,06,12,8.70
2020,02,01,06,13,8.70
2020,02,01,06,14,8.70
2020,02,01,06,15,8.70
2020,02,01,06,16,8.60
2020,02,01,06,17,8.60
2020,02,01,06,18,8.50
2020,02,01,06,19,8.50
2020,02,01,06,20,8.40
2020,02,01,06,21,8.40
2020,02,01,06,22,8.40
2020,02,01,06,23,8.30
2020,02,01,06,24,8.30
2020,02,01,06,25,8.30
2020,02,01,06,26,8.30
2020,02,01,06,27,8.30
2020,02,01,06,28,8.20
2020,02,01,06,29,8.20
2020,02,01,06,30,8.10
2020,02,01,06,31,8.10
2020,02,01,06,32,8.00
2020,02,01,06,33,8.00
2020,02,01,06,34,7.90
2020,02,01,06,35,7.90
2020,02,01,06,36,7.90
2020,02,01,06,37,7.80
2020,02,01,06,38,7.80
2020,02,01,06,39,7.80
2020,02,01,06,40,7.70
2020,02,01,06,41,7.70
2020,02,01,06,42,7.70
2020,02,01,06,43,7.60
2020,02,01,06,44,7.60
2020,02,01,06,45,7.60
2020,02,01,06,46,7.60
2020,02,01,06,47,7.50
2020,02,01,06,48,7.50
2020,02,01,06,49,7.50
2020,02,01,06,50,7.40
2020,02,01,06,51,7.40
2020,02,01,06,52,7.40
2020,02,01,06,53,7.40
2020,02,01,06,54,7.40
2020,02,01,06,55,7.30
2020,02,01,06,56,7.30
2020,02,01,06,57,7.30
2020,02,01,06,58,7.30
2020,02,01,06,59,7.30
2020,02,01,07,00,7.30
2020,02,01,07,01,7.30
2020,02,01,07,02,7.20
2020,02,01,07,03,7.20
2020,02,01,07,04,7.20
2020,02,01,07,05,7.20
2020,02,01,07,06,7.20
2020,02,01,07,07,7.20
2020,02,01,07,08,7.20
2020,02,01,07,09,7.20
2020,02,01,07,10,7.20
2020,02,01,07,11,7.20
2020,02,01,07,12,7.20
2020,02,01,07,13,7.10
2020,02,01,07,14,7.10
2020,02,01,07,15,7.10
2020,02,01,07,16,7.10
2020,02,01,07,17,7.10
2020,02,01,07,18,7.10
2020,02,01,07,19,7.10
2020,02,01,07,20,7.10
2020,02,01,07,21,7.10
2020,02,01,07,22,7.00
2020,02,01,07,23,7.00
2020,02,01,07,24,7.00
2020,02,01,07,25,7.00
2020,02,01,07,26,7.00
2020,02,01,07,27,7.00
2020,02,01,07,28,6.90
2020,02,01,07,29,6.90
2020,02,01,07,30,7.00
2020,02,01,07,31,7.00
2020,02,01,07,32,7.00
2020,02,01,07,33,7.00
2020,02,01,07,34,7.00
2020,02,01,07,35,7.00
2020,02,01,07,36,7.00
2020,02,01,07,37,7.00
2020,02,01,07,38,7.00
2020,02,01,07,39,6.90
2020,02,01,07,40,6.90
2020,02,01,07,41,6.90
2020,02,01,07,42,6.90
2020,02,01,07,43,6.90
2020,02,01,07,44,6.90
2020,02,01,07,45,6.90
2020,02,01,07,46,7.00
2020,02,01,07,47,7.00
2020,02,01,07,48,6.90
2020,02,01,07,49,6.90
2020,02,01,07,50,6.90
2020,02,01,07,51,6.90
2020,02,01,07,52,7.00
2020,02,01,07,53,7.00
2020,02,01,07,54,7.00
2020,02,01,07,55,7.00
2020,02,01,07,56,7.00
2020,02,01,07,57,7.00
2020,02,01,07,58,7.00
2020,02,01,07,59,7.00
2020,02,01,08,00,7.00
2020,02,01,08,01,7.00
2020,02,01,08,02,7.00
2020,02,01,08,03,7.00
2020,02,01,08,04,6.90
2020,02,01,08,05,6.90
2020,02,01,08,06,6.90
2020,02,01,08,07,6.90
2020,02,01,08,08,6.90
2020,02,01,08,09,6.90
2020,02,01,08,10,6.90
2020,02,01,08,11,6.90
2020,02,01,08,12,6.90
2020,02,01,08,13,6.90
2020,02,01,08,14,6.90
2020,02,01,08,15,6.90
2020,02,01,08,16,6.90
2020,02,01,08,17,6.90
2020,02,01,08,18,6.90
2020,02,01,08,19,6.80
2020,02,01,08,20,6.80
2020,02,01,08,21,6.80
2020,02,01,08,22,6.80
2020,02,01,08,23,6.80
2020,02,01,08,24,6.80
2020,02,01,08,25,6.80
2020,02,01,08,26,6.80
2020,02,01,08,27,6.80
2020,02,01,08,28,6.80
2020,02,01,08,29,6.80
2020,02,01,08,30,6.80
2020,02,01,08,31,6.80
2020,02,01,08,32,6.80
2020,02,01,08,33,6.80
2020,02,01,08,34,6.80
2020,02,01,08,35,6.80
2020,02,01,08,36,6.80
2020,02,01,08,37,6.80
2020,02,01,08,38,6.80
2020,02,01,08,39,6.80
2020,02,01,08,40,6.80
2020,02,01,08,41,6.80
2020,02,01,08,42,6.80
2020,02,01,08,43,6.70
2020,02,01,08,44,6.70
2020,02,01,08,45,6.70
2020,02,01,08,46,6.70
2020,02,01,08,47,6.70
2020,02,01,08,48,6.70
2020,02,01,08,49,6.70
2020,02,01,08,50,6.70
2020,02,01,08,51,6.70
2020,02,01,08,52,6.70
2020,02,01,08,53,6.70
2020,02,01,08,54,6.70
2020,02,01,08,55,6.70
2020,02,01,08,56,6.60
2020,02,01,08,57,6.60
2020,02,01,08,58,6.60
2020,02,01,08,59,6.60
2020,02,01,09,00,6.60
2020,02,01,09,01,6.60
2020,02,01,09,02,6.60
2020,02,01,09,03,6.60
2020,02,01,09,04,6.60
2020,02,01,09,05,6.60
2020,02,01,09,06,6.60
2020,02,01,09,07,6.60
2020,02,01,09,08,6.60
2020,02,01,09,09,6.60
2020,02,01,09,10,6.60
2020,02,01,09,11,6.60
2020,02,01,09,12,6.60
2020,02,01,09,13,6.60
2020,02,01,09,14,6.60
2020,02,01,09,15,6.60
2020,02,01,09,16,6.60
2020,02,01,09,17,6.60
2020,02,01,09,18,6.60
2020,02,01,09,19,6.60
2020,02,01,09,20,6.60
2020,02,01,09,21,6.70
2020,02,01,09,22,6.70
2020,02,01,09,23,6.70
2020,02,01,09,24,6.70
2020,02,01,09,25,6.70
2020,02,01,09,26,6.70
2020,02,01,09,27,6.70
2020,02,01,09,28,6.70
2020,02,01,09,29,6.70
2020,02,01,09,30,6.70
2020,02,01,09,31,6.70
2020,02,01,09,32,6.70
2020,02,01,09,33,6.70
2020,02,01,09,34,6.70
2020,02,01,09,35,6.70
2020,02,01,09,36,6.60
2020,02,01,09,37,6.70
2020,02,01,09,38,6.70
2020,02,01,09,39,6.70
2020,02,01,09,40,6.70
2020,02,01,09,41,6.70
2020,02,01,09,42,6.70
2020,02,01,09,43,6.70
2020,02,01,09,44,6.70
2020,02,01,09,45,6.70
2020,02,01,09,46,6.70
2020,02,01,09,47,6.70
2020,02,01,09,48,6.60
2020,02,01,09,49,6.60
2020,02,01,09,50,6.60
2020,02,01,09,51,6.70
2020,02,01,09,52,6.70
2020,02,01,09,53,6.70
2020,02,01,09,54,6.70
2020,02,01,09,55,6.70
2020,02,01,09,56,6.70
2020,02,01,09,57,6.70
2020,02,01,09,58,6.80
2020,02,01,09,59,6.80
2020,02,01,10,00,6.80
2020,02,01,10,01,6.90
2020,02,01,10,02,6.90
2020,02,01,10,03,7.00
2020,02,01,10,04,7.00
2020,02,01,10,05,7.10
2020,02,01,10,06,7.10
2020,02,01,10,07,7.20
2020,02,01,10,08,7.20
2020,02,01,10,09,7.20
2020,02,01,10,10,7.20
2020,02,01,10,11,7.20
2020,02,01,10,12,7.30
2020,02,01,10,13,7.30
2020,02,01,10,14,7.30
2020,02,01,10,15,7.30
2020,02,01,10,16,7.40
2020,02,01,10,17,7.40
2020,02,01,10,18,7.50
2020,02,01,10,19,7.50
2020,02,01,10,20,7.50
2020,02,01,10,21,7.60
2020,02,01,10,22,7.60
2020,02,01,10,23,7.60
2020,02,01,10,24,7.50
2020,02,01,10,25,7.50
2020,02,01,10,26,7.50
2020,02,01,10,27,7.50
2020,02,01,10,28,7.50
2020,02,01,10,29,7.50
2020,02,01,10,30,7.50
2020,02,01,10,31,7.40
2020,02,01,10,32,7.40
2020,02,01,10,33,7.40
2020,02,01,10,34,7.40
2020,02,01,10,35,7.40
2020,02,01,10,36,7.40
2020,02,01,10,37,7.30
2020,02,01,10,38,7.30
2020,02,01,10,39,7.30
2020,02,01,10,40,7.30
2020,02,01,10,41,7.30
2020,02,01,10,42,7.30
2020,02,01,10,43,7.30
2020,02,01,10,44,7.30
2020,02,01,10,45,7.30
2020,02,01,10,46,7.30
2020,02,01,10,47,7.30
2020,02,01,10,48,7.30
2020,02,01,10,49,7.30
2020,02,01,10,50,7.20
2020,02,01,10,51,7.20
2020,02,01,10,52,7.20
2020,02,01,10,53,7.20
2020,02,01,10,54,7.20
2020,02,01,10,55,7.20
2020,02,01,10,56,7.20
2020,02,01,10,57,7.20
2020,02,01,10,58,7.20
2020,02,01,10,59,7.30
2020,02,01,11,00,7.30
2020,02,01,11,01,7.30
2020,02,01,11,02,7.30
2020,02,01,11,03,7.30
2020,02,01,11,04,7.30
2020,02,01,11,05,7.30
2020,02,01,11,06,7.30
2020,02,01,11,07,7.30
2020,02,01,11,08,7.30
2020,02,01,11,09,7.30
2020,02,01,11,10,7.30
2020,02,01,11,11,7.40
2020,02,01,11,12,7.40
2020,02,01,11,13,7.40
2020,02,01,11,14,7.40
2020,02,01,11,15,7.40
2020,02,01,11,16,7.40
2020,02,01,11,17,7.40
2020,02,01,11,18,7.50
2020,02,01,11,19,7.50
2020,02,01,11,20,7.50
2020,02,01,11,21,7.50
2020,02,01,11,22,7.60
2020,02,01,11,23,7.60
2020,02,01,11,24,7.60
2020,02,01,11,25,7.60
2020,02,01,11,26,7.60
2020,02,01,11,27,7.60
2020,02,01,11,28,7.70
2020,02,01,11,29,7.70
2020,02,01,11,30,7.70
2020,02,01,11,31,7.70
2020,02,01,11,32,7.80
2020,02,01,11,33,7.80
2020,02,01,11,34,7.80
2020,02,01,11,35,7.90
2020,02,01,11,36,7.90
2020,02,01,11,37,8.00
2020,02,01,11,38,8.00
2020,02,01,11,39,8.10
2020,02,01,11,40,8.10
2020,02,01,11,41,8.10
2020,02,01,11,42,8.20
2020,02,01,11,43,8.20
2020,02,01,11,44,8.20
2020,02,01,11,45,8.20
2020,02,01,11,46,8.20
2020,02,01,11,47,8.20
2020,02,01,11,48,8.20
2020,02,01,11,49,8.20
2020,02,01,11,50,8.20
2020,02,01,11,51,8.20
2020,02,01,11,52,8.30
2020,02,01,11,53,8.30
2020,02,01,11,54,8.30
2020,02,01,11,55,8.30
2020,02,01,11,56,8.30
2020,02,01,11,57,8.30
2020,02,01,11,58,8.30
2020,02,01,11,59,8.30
2020,02,01,12,00,8.30
2020,02,01,12,01,8.30
2020,02,01,12,02,8.30
2020,02,01,12,03,8.30
2020,02,01,12,04,8.30
2020,02,01,12,05,8.30
2020,02,01,12,06,8.30
2020,02,01,12,07,8.30
2020,02,01,12,08,8.30
2020,02,01,12,09,8.30
2020,02,01,12,10,8.30
2020,02,01,12,11,8.30
2020,02,01,12,12,8.40
2020,02,01,12,13,8.40
2020,02,01,12,14,8.40
2020,02,01,12,15,8.40
2020,02,01,12,16,8.40
2020,02,01,12,17,8.40
2020,02,01,12,18,8.40
2020,02,01,12,19,8.40
2020,02,01,12,20,8.40
2020,02,01,12,21,8.40
2020,02,01,12,22,8.40
2020,02,01,12,23,8.30
2020,02,01,12,24,8.30
2020,02,01,12,25,8.30
2020,02,01,12,26,8.30
2020,02,01,12,27,8.30
2020,02,01,12,28,8.30
2020,02,01,12,29,8.20
2020,02,01,12,30,8.20
2020,02,01,12,31,8.20
2020,02,01,12,32,8.20
2020,02,01,12,33,8.20
2020,02,01,12,34,8.20
2020,02,01,12,35,8.20
2020,02,01,12,36,8.10
2020,02,01,12,37,8.10
2020,02,01,12,38,8.10
2020,02,01,12,39,8.10
2020,02,01,12,40,8.00
2020,02,01,12,41,8.00
2020,02,01,12,42,7.90
2020,02,01,12,43,7.90
2020,02,01,12,44,7.90
2020,02,01,12,45,7.80
2020,02,01,12,46,7.80
2020,02,01,12,47,7.80
2020,02,01,12,48,7.80
2020,02,01,12,49,7.80
2020,02,01,12,50,7.70
2020,02,01,12,51,7.70
2020,02,01,12,52,7.70
2020,02,01,12,53,7.70
2020,02,01,12,54,7.70
2020,02,01,12,55,7.60
2020,02,01,12,56,7.60
2020,02,01,12,57,7.60
2020,02,01,12,58,7.60
2020,02,01,12,59,7.60
2020,02,01,13,00,7.60
2020,02,01,13,01,7.60
2020,02,01,13,02,7.60
2020,02,01,13,03,7.50
2020,02,01,13,04,7.50
2020,02,01,13,05,7.50
2020,02,01,13,06,7.40
2020,02,01,13,07,7.40
2020,02,01,13,08,7.40
2020,02,01,13,09,7.40
2020,02,01,13,10,7.40
2020,02,01,13,11,7.40
2020,02,01,13,12,7.30
2020,02,01,13,13,7.30
2020,02,01,13,14,7.30
2020,02,01,13,15,7.40
2020,02,01,13,16,7.40
2020,02,01,13,17,7.30
2020,02,01,13,18,7.30
2020,02,01,13,19,7.30
2020,02,01,13,20,7.30
2020,02,01,13,21,7.30
2020,02,01,13,22,7.30
2020,02,01,13,23,7.30
2020,02,01,13,24,7.30
2020,02,01,13,25,7.30
2020,02,01,13,26,7.40
2020,02,01,13,27,7.40
2020,02,01,13,28,7.40
2020,02,01,13,29,7.40
2020,02,01,13,30,7.40
2020,02,01,13,31,7.40
2020,02,01,13,32,7.40
2020,02,01,13,33,7.50
2020,02,01,13,34,7.50
2020,02,01,13,35,7.50
2020,02,01,13,36,7.50
2020,02,01,13,37,7.50
2020,02,01,13,38,7.50
2020,02,01,13,39,7.50
2020,02,01,13,40,7.50
2020,02,01,13,41,7.50
2020,02,01,13,42,7.50
2020,02,01,13,43,7.50
2020,02,01,13,44,7.50
2020,02,01,13,45,7.50
2020,02,01,13,46,7.50
2020,02,01,13,47,7.50
2020,02,01,13,48,7.50
2020,02,01,13,49,7.50
2020,02,01,13,50,7.60
2020,02,01,13,51,7.60
2020,02,01,13,52,7.60
2020,02,01,13,53,7.60
2020,02,01,13,54,7.60
2020,02,01,13,55,7.70
2020,02,01,13,56,7.70
2020,02,01,13,57,7.70
2020,02,01,13,58,7.70
2020,02,01,13,59,7.70
2020,02,01,14,00,7.70
2020,02,01,14,01,7.80
2020,02,01,14,02,7.80
2020,02,01,14,03,7.80
2020,02,01,14,04,7.80
2020,02,01,14,05,7.80
2020,02,01,14,06,7.80
2020,02,01,14,07,7.80
2020,02,01,14,08,7.80
2020,02,01,14,09,7.70
2020,02,01,14,10,7.70
2020,02,01,14,11,7.70
2020,02,01,14,12,7.70
2020,02,01,14,13,7.70
2020,02,01,14,14,7.60
2020,02,01,14,15,7.60
2020,02,01,14,16,7.60
2020,02,01,14,17,7.60
2020,02,01,14,18,7.50
2020,02,01,14,19,7.50
2020,02,01,14,20,7.50
2020,02,01,14,21,7.40
2020,02,01,14,22,7.40
2020,02,01,14,23,7.40
2020,02,01,14,24,7.30
2020,02,01,14,25,7.30
2020,02,01,14,26,7.30
2020,02,01,14,27,7.30
2020,02,01,14,28,7.20
2020,02,01,14,29,7.20
2020,02,01,14,30,7.20
2020,02,01,14,31,7.20
2020,02,01,14,32,7.20
2020,02,01,14,33,7.20
2020,02,01,14,34,7.20
2020,02,01,14,35,7.20
2020,02,01,14,36,7.10
2020,02,01,14,37,7.10
2020,02,01,14,38,7.10
2020,02,01,14,39,7.10
2020,02,01,14,40,7.00
2020,02,01,14,41,7.00
2020,02,01,14,42,6.90
2020,02,01,14,43,6.90
2020,02,01,14,44,6.90
2020,02,01,14,45,6.90
2020,02,01,14,46,6.80
2020,02,01,14,47,6.80
2020,02,01,14,48,6.80
2020,02,01,14,49,6.80
2020,02,01,14,50,6.80
2020,02,01,14,51,6.80
2020,02,01,14,52,6.70
2020,02,01,14,53,6.70
2020,02,01,14,54,6.70
2020,02,01,14,55,6.70
2020,02,01,14,56,6.70
2020,02,01,14,57,6.70
2020,02,01,14,58,6.70
2020,02,01,14,59,6.70
2020,02,01,15,00,6.60
2020,02,01,15,01,6.60
2020,02,01,15,02,6.60
2020,02,01,15,03,6.60
2020,02,01,15,04,6.60
2020,02,01,15,05,6.60
2020,02,01,15,06,6.60
2020,02,01,15,07,6.60
2020,02,01,15,08,6.60
2020,02,01,15,09,6.60
2020,02,01,15,10,6.60
2020,02,01,15,11,6.50
2020,02,01,15,12,6.50
2020,02,01,15,13,6.40
2020,02,01,15,14,6.40
2020,02,01,15,15,6.40
2020,02,01,15,16,6.40
2020,02,01,15,17,6.40
2020,02,01,15,18,6.40
2020,02,01,15,19,6.40
2020,02,01,15,20,6.40
2020,02,01,15,21,6.30
2020,02,01,15,22,6.30
2020,02,01,15,23,6.30
2020,02,01,15,24,6.30
2020,02,01,15,25,6.30
2020,02,01,15,26,6.20
2020,02,01,15,27,6.20
2020,02,01,15,28,6.20
2020,02,01,15,29,6.20
2020,02,01,15,30,6.20
2020,02,01,15,31,6.10
2020,02,01,15,32,6.10
2020,02,01,15,33,6.10
2020,02,01,15,34,6.10
2020,02,01,15,35,6.00
2020,02,01,15,36,6.00
2020,02,01,15,37,6.00
2020,02,01,15,38,6.00
2020,02,01,15,39,6.00
2020,02,01,15,40,6.00
2020,02,01,15,41,5.90
2020,02,01,15,42,5.90
2020,02,01,15,43,5.90
2020,02,01,15,44,5.90
2020,02,01,15,45,5.90
2020,02,01,15,46,5.90
2020,02,01,15,47,5.90
2020,02,01,15,48,5.90
2020,02,01,15,49,5.90
2020,02,01,15,50,5.90
2020,02,01,15,51,5.90
2020,02,01,15,52,5.90
2020,02,01,15,53,5.80
2020,02,01,15,54,5.80
2020,02,01,15,55,5.80
2020,02,01,15,56,5.80
2020,02,01,15,57,5.80
2020,02,01,15,58,5.80
2020,02,01,15,59,5.70
2020,02,01,16,00,5.70
2020,02,01,16,01,5.70
2020,02,01,16,02,5.70
2020,02,01,16,03,5.60
2020,02,01,16,04,5.60
2020,02,01,16,05,5.60
2020,02,01,16,06,5.60
2020,02,01,16,07,5.60
2020,02,01,16,08,5.50
2020,02,01,16,09,5.50
2020,02,01,16,10,5.50
2020,02,01,16,11,5.40
2020,02,01,16,12,5.40
2020,02,01,16,13,5.40
2020,02,01,16,14,5.30
2020,02,01,16,15,5.30
2020,02,01,16,16,5.30
2020,02,01,16,17,5.30
2020,02,01,16,18,5.30
2020,02,01,16,19,5.20
2020,02,01,16,20,5.20
2020,02,01,16,21,5.20
2020,02,01,16,22,5.20
2020,02,01,16,23,5.10
2020,02,01,16,24,5.10
2020,02,01,16,25,5.10
2020,02,01,16,26,5.10
2020,02,01,16,27,5.00
2020,02,01,16,28,5.00
2020,02,01,16,29,5.00
2020,02,01,16,30,5.00
2020,02,01,16,31,4.90
2020,02,01,16,32,4.90
2020,02,01,16,33,4.90
2020,02,01,16,34,4.90
2020,02,01,16,35,4.90
2020,02,01,16,36,4.90
2020,02,01,16,37,4.90
2020,02,01,16,38,4.90
2020,02,01,16,39,4.80
2020,02,01,16,40,4.80
2020,02,01,16,41,4.80
2020,02,01,16,42,4.70
2020,02,01,16,43,4.70
2020,02,01,16,44,4.70
2020,02,01,16,45,4.70
2020,02,01,16,46,4.70
2020,02,01,16,47,4.70
2020,02,01,16,48,4.60
2020,02,01,16,49,4.60
2020,02,01,16,50,4.60
2020,02,01,16,51,4.60
2020,02,01,16,52,4.60
2020,02,01,16,53,4.60
2020,02,01,16,54,4.50
2020,02,01,16,55,4.50
2020,02,01,16,56,4.50
2020,02,01,16,57,4.50
2020,02,01,16,58,4.50
2020,02,01,16,59,4.40
2020,02,01,17,00,4.40
2020,02,01,17,01,4.40
2020,02,01,17,02,4.40
2020,02,01,17,03,4.40
2020,02,01,17,04,4.30
2020,02,01,17,05,4.30
2020,02,01,17,06,4.30
2020,02,01,17,07,4.30
2020,02,01,17,08,4.20
2020,02,01,17,09,4.20
2020,02,01,17,10,4.20
2020,02,01,17,11,4.20
2020,02,01,17,12,4.10
2020,02,01,17,13,4.10
2020,02,01,17,14,4.10
2020,02,01,17,15,4.10
2020,02,01,17,16,4.10
2020,02,01,17,17,4.10
2020,02,01,17,18,4.10
2020,02,01,17,19,4.10
2020,02,01,17,20,4.10
2020,02,01,17,21,4.10
2020,02,01,17,22,4.10
2020,02,01,17,23,4.00
2020,02,01,17,24,4.00
2020,02,01,17,25,4.00
2020,02,01,17,26,4.00
2020,02,01,17,27,3.90
2020,02,01,17,28,3.90
2020,02,01,17,29,3.90
2020,02,01,17,30,3.80
2020,02,01,17,31,3.80
2020,02,01,17,32,3.80
2020,02,01,17,33,3.80
2020,02,01,17,34,3.70
2020,02,01,17,35,3.70
2020,02,01,17,36,3.70
2020,02,01,17,37,3.60
2020,02,01,17,38,3.60
2020,02,01,17,39,3.60
2020,02,01,17,40,3.50
2020,02,01,17,41,3.50
2020,02,01,17,42,3.40
2020,02,01,17,43,3.40
2020,02,01,17,44,3.40
2020,02,01,17,45,3.30
2020,02,01,17,46,3.30
2020,02,01,17,47,3.30
2020,02,01,17,48,3.20
2020,02,01,17,49,3.20
2020,02,01,17,50,3.20
2020,02,01,17,51,3.20